SIK63A LICB-LEVC

Flight info

Callsign SIK63A
Flight time 2h 5m
Altitude 33000
Route NELDA DCT SONAK UM978 TUC UA411 KEMIR UM978 MORJA UA411 ANB UM134 LUXUR M134 NINOT
Aircraft B738/M-SDE2E3FGHIRWXY/LB1

Departure

Time 2026-05-07 13:17
Airport Comiso Airport (LICB)

Arrival

Time 2026-05-07 15:22
Airport Valencia Airport (LEVC)
Time Latitude Longitude Altitude Speed Heading
2026-05-07 12:55 36.99765 14.60752 720 ft 0 kts 322°
2026-05-07 13:10 36.99754 14.60763 722 ft 3 kts 320°
2026-05-07 13:11 36.99739 14.60787 720 ft 4 kts 269°
2026-05-07 13:11 36.99748 14.60814 720 ft 3 kts 230°
2026-05-07 13:11 36.99754 14.60823 720 ft 0 kts 230°
2026-05-07 13:13 36.99750 14.60817 720 ft 5 kts 228°
2026-05-07 13:13 36.99703 14.60780 720 ft 12 kts 203°
2026-05-07 13:14 36.99603 14.60735 720 ft 18 kts 199°
2026-05-07 13:14 36.99458 14.60654 724 ft 28 kts 211°
2026-05-07 13:14 36.99300 14.60466 720 ft 36 kts 230°
2026-05-07 13:14 36.99123 14.60203 720 ft 43 kts 230°
2026-05-07 13:15 36.98948 14.59942 722 ft 34 kts 230°
2026-05-07 13:15 36.98857 14.59791 723 ft 16 kts 257°
2026-05-07 13:15 36.98821 14.59726 724 ft 8 kts 124°
2026-05-07 13:15 36.98830 14.59764 722 ft 0 kts 55°
2026-05-07 13:16 36.98893 14.59862 721 ft 46 kts 50°
2026-05-07 13:16 36.99256 14.60404 721 ft 114 kts 50°
2026-05-07 13:17 36.99887 14.61333 834 ft 158 kts 53°
2026-05-07 13:17 37.00683 14.62353 1440 ft 172 kts 44°
2026-05-07 13:17 37.01860 14.62933 2045 ft 198 kts
2026-05-07 13:17 37.03224 14.62407 2790 ft 220 kts 329°
2026-05-07 13:18 37.04099 14.60849 3610 ft 219 kts 283°
2026-05-07 13:18 37.03994 14.59009 4313 ft 218 kts 243°
2026-05-07 13:18 37.02960 14.57571 4558 ft 234 kts 211°
2026-05-07 13:18 37.01708 14.56203 4894 ft 247 kts 240°
2026-05-07 13:19 37.01313 14.54120 5438 ft 254 kts 264°
2026-05-07 13:19 37.01211 14.51872 6010 ft 260 kts 263°
2026-05-07 13:19 37.01086 14.49587 6784 ft 260 kts 262°
2026-05-07 13:19 37.00937 14.47374 7771 ft 256 kts 261°
2026-05-07 13:20 37.00759 14.45173 8620 ft 255 kts 261°
2026-05-07 13:20 37.00556 14.42939 9261 ft 264 kts 261°
2026-05-07 13:20 37.00329 14.40641 10029 ft 264 kts 261°
2026-05-07 13:20 37.00086 14.38312 10484 ft 280 kts 261°
2026-05-07 13:21 36.99810 14.35786 10627 ft 304 kts 261°
2026-05-07 13:21 36.99506 14.33085 10811 ft 324 kts 260°
2026-05-07 13:21 36.99172 14.30196 10945 ft 344 kts 260°
2026-05-07 13:21 36.98817 14.27179 11153 ft 359 kts 260°
2026-05-07 13:22 36.98446 14.24057 11584 ft 364 kts 260°
2026-05-07 13:22 36.98072 14.20931 12228 ft 366 kts 260°
2026-05-07 13:22 36.97687 14.17737 12572 ft 375 kts 260°
2026-05-07 13:22 36.97294 14.14498 13127 ft 378 kts 260°
2026-05-07 13:23 36.96903 14.11285 13742 ft 379 kts 260°
2026-05-07 13:23 36.96506 14.08030 14268 ft 380 kts 260°
2026-05-07 13:23 36.96105 14.04755 14781 ft 382 kts 260°
2026-05-07 13:23 36.95701 14.01465 15295 ft 384 kts 260°
2026-05-07 13:24 36.95293 13.98156 15803 ft 386 kts 260°
2026-05-07 13:24 36.94883 13.94832 16305 ft 388 kts 260°
2026-05-07 13:24 36.94470 13.91492 16800 ft 390 kts 260°
2026-05-07 13:24 36.94053 13.88137 17276 ft 392 kts 260°
2026-05-07 13:25 36.93634 13.84764 17781 ft 393 kts 260°
2026-05-07 13:25 36.93213 13.81382 18278 ft 394 kts 260°
2026-05-07 13:25 36.92790 13.78000 18684 ft 395 kts 260°
2026-05-07 13:25 36.92365 13.74602 19081 ft 397 kts 260°
2026-05-07 13:26 36.91941 13.71229 19451 ft 399 kts 260°
2026-05-07 13:26 36.91504 13.67757 19876 ft 398 kts 260°
2026-05-07 13:26 36.91080 13.64390 20345 ft 398 kts 260°
2026-05-07 13:26 36.90646 13.60963 20688 ft 401 kts 260°
2026-05-07 13:27 36.90209 13.57513 21001 ft 403 kts 260°
2026-05-07 13:27 36.89768 13.54042 21330 ft 405 kts 260°
2026-05-07 13:27 36.89324 13.50557 21684 ft 407 kts 260°
2026-05-07 13:27 36.88877 13.47057 22025 ft 409 kts 259°
2026-05-07 13:28 36.88427 13.43536 22311 ft 412 kts 259°
2026-05-07 13:28 36.87972 13.39992 22618 ft 414 kts 259°
2026-05-07 13:28 36.87515 13.36436 22932 ft 416 kts 259°
2026-05-07 13:28 36.87055 13.32868 23238 ft 417 kts 259°
2026-05-07 13:29 36.86591 13.29281 23507 ft 419 kts 259°
2026-05-07 13:29 36.86125 13.25682 23767 ft 420 kts 259°
2026-05-07 13:29 36.85663 13.22124 24053 ft 420 kts 259°
2026-05-07 13:29 36.85506 13.20915 24157 ft 420 kts 259°
2026-05-07 13:30 36.84726 13.14927 24639 ft 420 kts 259°
2026-05-07 13:30 36.84255 13.11326 24927 ft 420 kts 259°
2026-05-07 13:30 36.83784 13.07736 25238 ft 419 kts 259°
2026-05-07 13:30 36.83312 13.04140 25501 ft 419 kts 259°
2026-05-07 13:31 36.82839 13.00550 25734 ft 420 kts 259°
2026-05-07 13:31 36.82363 12.96946 25970 ft 421 kts 259°
2026-05-07 13:31 36.81885 12.93338 26213 ft 421 kts 259°
2026-05-07 13:31 36.81406 12.89730 26549 ft 419 kts 259°
2026-05-07 13:32 36.80932 12.86162 26981 ft 415 kts 259°
2026-05-07 13:32 36.80461 12.82622 27440 ft 411 kts 259°
2026-05-07 13:32 36.79994 12.79123 27862 ft 408 kts 259°
2026-05-07 13:32 36.79529 12.75648 28278 ft 405 kts 259°
2026-05-07 13:33 36.79065 12.72192 28739 ft 401 kts 258°
2026-05-07 13:33 36.78607 12.68783 29188 ft 398 kts 259°
2026-05-07 13:33 36.78149 12.65388 29551 ft 396 kts 259°
2026-05-07 13:33 36.77692 12.62007 29926 ft 395 kts 259°
2026-05-07 13:34 36.77236 12.58640 30290 ft 392 kts 259°
2026-05-07 13:34 36.76328 12.51956 30940 ft 389 kts 258°
2026-05-07 13:34 36.75876 12.48638 31255 ft 388 kts 258°
2026-05-07 13:35 36.75424 12.45331 31561 ft 386 kts 258°
2026-05-07 13:35 36.74978 12.42072 31847 ft 386 kts 258°
2026-05-07 13:35 36.74520 12.38736 32094 ft 386 kts 258°
2026-05-07 13:35 36.74066 12.35435 32296 ft 387 kts 258°
2026-05-07 13:36 36.73610 12.32125 32492 ft 388 kts 258°
2026-05-07 13:36 36.73153 12.28816 32721 ft 387 kts 258°
2026-05-07 13:36 36.72702 12.25556 32871 ft 388 kts 257°
2026-05-07 13:37 36.71781 12.18921 32869 ft 387 kts 257°
2026-05-07 13:37 36.70863 12.12332 32882 ft 385 kts 257°
2026-05-07 13:38 36.69946 12.05773 32882 ft 384 kts 257°
2026-05-07 13:38 36.69024 11.99213 32894 ft 385 kts 257°
2026-05-07 13:39 36.68096 11.92640 32882 ft 386 kts 257°
2026-05-07 13:39 36.67168 11.86085 32888 ft 387 kts 257°
2026-05-07 13:40 36.66220 11.79421 32880 ft 389 kts 257°
2026-05-07 13:40 36.65274 11.72792 32859 ft 389 kts 257°
2026-05-07 13:41 36.64328 11.66173 32884 ft 388 kts 257°
2026-05-07 13:41 36.63377 11.59551 32885 ft 388 kts 257°
2026-05-07 13:42 36.62522 11.52948 32879 ft 391 kts 262°
2026-05-07 13:42 36.62721 11.46137 32878 ft 398 kts 272°
2026-05-07 13:43 36.63939 11.39360 32890 ft 402 kts 276°
2026-05-07 13:43 36.65227 11.32594 32885 ft 401 kts 276°
2026-05-07 13:44 36.66496 11.25818 32892 ft 402 kts 276°
2026-05-07 13:44 36.67758 11.19019 32894 ft 403 kts 276°
2026-05-07 13:45 36.69020 11.12196 32890 ft 404 kts 276°
2026-05-07 13:45 36.70273 11.05398 32889 ft 405 kts 276°
2026-05-07 13:46 36.71529 10.98548 32886 ft 406 kts 276°
2026-05-07 13:46 36.72788 10.91674 32892 ft 406 kts 276°
2026-05-07 13:47 36.74045 10.84803 32902 ft 407 kts 276°
2026-05-07 13:47 36.75301 10.77924 32891 ft 407 kts 276°
2026-05-07 13:48 36.76557 10.71032 32887 ft 407 kts 276°
2026-05-07 13:48 36.77803 10.64145 32886 ft 407 kts 276°
2026-05-07 13:49 36.79036 10.57252 32913 ft 407 kts 276°
2026-05-07 13:49 36.80256 10.50398 32892 ft 406 kts 275°
2026-05-07 13:50 36.81479 10.43532 32885 ft 405 kts 275°
2026-05-07 13:50 36.82697 10.36681 32887 ft 404 kts 275°
2026-05-07 13:51 36.83908 10.29842 32912 ft 403 kts 275°
2026-05-07 13:51 36.84998 10.23005 32910 ft 398 kts 270°
2026-05-07 13:52 36.85041 10.16177 32918 ft 392 kts 263°
2026-05-07 13:52 36.84914 10.09372 32913 ft 392 kts 263°
2026-05-07 13:53 36.84805 10.02554 32908 ft 393 kts 263°
2026-05-07 13:53 36.84703 9.95732 32892 ft 393 kts 263°
2026-05-07 13:54 36.84600 9.88904 32893 ft 393 kts 263°
2026-05-07 13:54 36.84494 9.82083 32905 ft 393 kts 263°
2026-05-07 13:55 36.84383 9.75290 32879 ft 394 kts 263°
2026-05-07 13:55 36.84269 9.68446 32875 ft 394 kts 263°
2026-05-07 13:56 36.84150 9.61590 32857 ft 396 kts 263°
2026-05-07 13:56 36.84027 9.54704 32874 ft 398 kts 263°
2026-05-07 13:57 36.83902 9.47776 32879 ft 400 kts 263°
2026-05-07 13:57 36.83774 9.40818 32877 ft 402 kts 263°
2026-05-07 13:58 36.83739 9.33845 32868 ft 402 kts 264°
2026-05-07 13:58 36.83733 9.26877 32872 ft 400 kts 264°
2026-05-07 13:59 36.83718 9.19988 32886 ft 399 kts 264°
2026-05-07 13:59 36.83692 9.13059 32891 ft 399 kts 263°
2026-05-07 14:00 36.83660 9.06139 32919 ft 398 kts 263°
2026-05-07 14:00 36.83625 8.99240 32896 ft 396 kts 263°
2026-05-07 14:01 36.83586 8.92386 32896 ft 394 kts 263°
2026-05-07 14:01 36.83543 8.85550 32899 ft 393 kts 263°
2026-05-07 14:02 36.83497 8.78722 32901 ft 393 kts 263°
2026-05-07 14:02 36.83458 8.73060 32897 ft 392 kts 263°
2026-05-07 14:03 36.83405 8.66275 32909 ft 389 kts 262°
2026-05-07 14:03 36.83379 8.58436 32896 ft 388 kts 263°
2026-05-07 14:04 36.83384 8.52794 32895 ft 388 kts 263°
2026-05-07 14:04 36.83387 8.46102 32885 ft 387 kts 263°
2026-05-07 14:05 36.83384 8.39384 32893 ft 387 kts 263°
2026-05-07 14:05 36.83376 8.32693 32912 ft 386 kts 262°
2026-05-07 14:06 36.83364 8.25977 32887 ft 386 kts 262°
2026-05-07 14:06 36.83348 8.19277 32888 ft 385 kts 262°
2026-05-07 14:07 36.83329 8.12591 32896 ft 385 kts 262°
2026-05-07 14:07 36.83306 8.05904 32899 ft 385 kts 262°
2026-05-07 14:08 36.83281 7.99233 32908 ft 385 kts 262°
2026-05-07 14:08 36.83253 7.92547 32918 ft 386 kts 261°
2026-05-07 14:09 36.83229 7.85835 32922 ft 388 kts 263°
2026-05-07 14:09 36.84088 7.79052 32914 ft 404 kts 275°
2026-05-07 14:10 36.86093 7.72416 32901 ft 414 kts 281°
2026-05-07 14:10 36.88287 7.65771 32897 ft 413 kts 281°
2026-05-07 14:11 36.90470 7.59123 32908 ft 413 kts 281°
2026-05-07 14:11 36.92636 7.52469 32897 ft 413 kts 280°
2026-05-07 14:12 36.94794 7.45808 32883 ft 414 kts 280°
2026-05-07 14:12 36.96951 7.39132 32879 ft 414 kts 280°
2026-05-07 14:13 36.99104 7.32453 32868 ft 414 kts 280°
2026-05-07 14:13 37.01235 7.25834 32891 ft 413 kts 280°
2026-05-07 14:14 37.03374 7.19167 32890 ft 413 kts 280°
2026-05-07 14:14 37.05513 7.12481 32877 ft 414 kts 280°
2026-05-07 14:15 37.07651 7.05787 32880 ft 414 kts 280°
2026-05-07 14:15 37.09788 6.99081 32880 ft 415 kts 280°
2026-05-07 14:16 37.11926 6.92357 32886 ft 416 kts 280°
2026-05-07 14:16 37.14056 6.85639 32879 ft 416 kts 280°
2026-05-07 14:17 37.16194 6.78883 32886 ft 417 kts 280°
2026-05-07 14:17 37.18333 6.72111 32879 ft 418 kts 280°
2026-05-07 14:18 37.20472 6.65320 32879 ft 418 kts 280°
2026-05-07 14:18 37.22593 6.58570 32877 ft 419 kts 280°
2026-05-07 14:19 37.24724 6.51775 32868 ft 419 kts 280°
2026-05-07 14:19 37.26856 6.44957 32895 ft 419 kts 280°
2026-05-07 14:20 37.28986 6.38128 32877 ft 420 kts 280°
2026-05-07 14:20 37.31113 6.31293 32898 ft 420 kts 280°
2026-05-07 14:21 37.33239 6.24444 32875 ft 420 kts 280°
2026-05-07 14:21 37.35360 6.17599 32859 ft 420 kts 280°
2026-05-07 14:22 37.37475 6.10753 32866 ft 420 kts 280°
2026-05-07 14:22 37.39587 6.03901 32868 ft 420 kts 281°
2026-05-07 14:23 37.41695 5.97044 32860 ft 421 kts 281°
2026-05-07 14:23 37.43804 5.90168 32862 ft 421 kts 281°
2026-05-07 14:24 37.45893 5.83342 32865 ft 421 kts 281°
2026-05-07 14:24 37.47996 5.76450 32849 ft 422 kts 281°
2026-05-07 14:25 37.50099 5.69546 32878 ft 423 kts 282°
2026-05-07 14:25 37.52204 5.62610 32871 ft 425 kts 282°
2026-05-07 14:26 37.54319 5.55629 32872 ft 428 kts 282°
2026-05-07 14:26 37.56442 5.48604 32867 ft 430 kts 282°
2026-05-07 14:27 37.58572 5.41541 32861 ft 432 kts 282°
2026-05-07 14:27 37.60707 5.34445 32874 ft 433 kts 282°
2026-05-07 14:28 37.62841 5.27333 32872 ft 433 kts 282°
2026-05-07 14:28 37.64968 5.20230 32868 ft 433 kts 282°
2026-05-07 14:29 37.67087 5.13135 32866 ft 431 kts 282°
2026-05-07 14:29 37.69196 5.06062 32864 ft 430 kts 282°
2026-05-07 14:30 37.71284 4.99045 32870 ft 429 kts 283°
2026-05-07 14:30 37.73527 4.92052 32887 ft 430 kts 284°
2026-05-07 14:31 37.75834 4.85074 32873 ft 430 kts 284°
2026-05-07 14:31 37.78125 4.78100 32875 ft 429 kts 284°
2026-05-07 14:32 37.80399 4.71118 32874 ft 429 kts 284°
2026-05-07 14:32 37.82668 4.64117 32882 ft 430 kts 284°
2026-05-07 14:33 37.84930 4.57115 32897 ft 430 kts 284°
2026-05-07 14:33 37.87182 4.50127 32906 ft 432 kts 284°
2026-05-07 14:34 37.89451 4.43070 32887 ft 433 kts 284°
2026-05-07 14:34 37.91724 4.35986 32877 ft 435 kts 284°
2026-05-07 14:35 37.93998 4.28881 32886 ft 436 kts 284°
2026-05-07 14:35 37.96273 4.21756 32885 ft 436 kts 284°
2026-05-07 14:36 37.98549 4.14610 32888 ft 437 kts 283°
2026-05-07 14:36 38.00821 4.07458 32885 ft 438 kts 283°
2026-05-07 14:37 38.03091 4.00295 32885 ft 438 kts 283°
2026-05-07 14:37 38.06474 3.89585 32885 ft 438 kts 283°
2026-05-07 14:38 38.08732 3.82416 32884 ft 437 kts 283°
2026-05-07 14:38 38.10986 3.75238 32890 ft 438 kts 284°
2026-05-07 14:39 38.13237 3.68056 32885 ft 438 kts 284°
2026-05-07 14:39 38.15483 3.60869 32892 ft 438 kts 284°
2026-05-07 14:40 38.17727 3.53678 32883 ft 438 kts 284°
2026-05-07 14:40 38.19967 3.46482 32884 ft 437 kts 284°
2026-05-07 14:41 38.22182 3.39284 32893 ft 436 kts 283°
2026-05-07 14:41 38.24298 3.32104 32885 ft 437 kts 283°
2026-05-07 14:42 38.26427 3.24866 32889 ft 436 kts 283°
2026-05-07 14:42 38.28559 3.17640 32889 ft 436 kts 283°
2026-05-07 14:43 38.30893 3.10480 32891 ft 441 kts 288°
2026-05-07 14:43 38.33617 3.03473 32907 ft 442 kts 289°
2026-05-07 14:44 38.36331 2.96449 32896 ft 442 kts 288°
2026-05-07 14:44 38.38996 2.89393 32890 ft 442 kts 288°
2026-05-07 14:45 38.41651 2.82321 32891 ft 442 kts 288°
2026-05-07 14:45 38.44309 2.75249 32893 ft 442 kts 288°
2026-05-07 14:46 38.46969 2.68165 32896 ft 443 kts 288°
2026-05-07 14:46 38.49630 2.61070 32901 ft 444 kts 288°
2026-05-07 14:47 38.52290 2.53957 32901 ft 444 kts 288°
2026-05-07 14:47 38.54933 2.46875 32903 ft 445 kts 288°
2026-05-07 14:48 38.57615 2.39694 32904 ft 445 kts 288°
2026-05-07 14:48 38.60263 2.32595 32889 ft 446 kts 288°
2026-05-07 14:49 38.62947 2.25387 32901 ft 447 kts 287°
2026-05-07 14:49 38.65595 2.18259 32911 ft 447 kts 287°
2026-05-07 14:50 38.68251 2.11056 32906 ft 447 kts 287°
2026-05-07 14:50 38.70889 2.03832 32907 ft 448 kts 287°
2026-05-07 14:51 38.73543 1.96593 32909 ft 448 kts 287°
2026-05-07 14:51 38.76186 1.89369 32930 ft 448 kts 287°
2026-05-07 14:52 38.78817 1.82128 32916 ft 448 kts 287°
2026-05-07 14:52 38.81444 1.74882 32909 ft 448 kts 287°
2026-05-07 14:53 38.83631 1.68841 32911 ft 448 kts 287°
2026-05-07 14:53 38.86676 1.60409 32912 ft 448 kts 286°
2026-05-07 14:54 38.88867 1.54328 32930 ft 448 kts 286°
2026-05-07 14:54 38.91480 1.47051 32917 ft 448 kts 285°
2026-05-07 14:55 38.93820 1.39675 32914 ft 445 kts 283°
2026-05-07 14:55 38.95993 1.32298 32832 ft 446 kts 282°
2026-05-07 14:56 38.97099 1.28544 32197 ft 451 kts 283°
2026-05-07 14:56 38.98218 1.24787 31531 ft 448 kts 283°
2026-05-07 14:56 38.99337 1.21052 30823 ft 448 kts 283°
2026-05-07 14:56 39.00461 1.17306 30092 ft 449 kts 283°
2026-05-07 14:57 39.01586 1.13554 29251 ft 450 kts 283°
2026-05-07 14:57 39.02713 1.09793 28537 ft 449 kts 283°
2026-05-07 14:57 39.03833 1.06061 27957 ft 445 kts 283°
2026-05-07 14:57 39.04938 1.02370 27383 ft 441 kts 283°
2026-05-07 14:58 39.06033 0.98704 26824 ft 437 kts 284°
2026-05-07 14:58 39.07115 0.95073 26276 ft 433 kts 284°
2026-05-07 14:58 39.08188 0.91466 25731 ft 430 kts 284°
2026-05-07 14:58 39.09253 0.87877 25187 ft 427 kts 284°
2026-05-07 14:59 39.10308 0.84317 24647 ft 425 kts 285°
2026-05-07 14:59 39.11358 0.80773 24093 ft 423 kts 285°
2026-05-07 14:59 39.12404 0.77239 23550 ft 422 kts 285°
2026-05-07 14:59 39.13447 0.73708 22926 ft 421 kts 287°
2026-05-07 15:00 39.14481 0.70198 22317 ft 418 kts 287°
2026-05-07 15:00 39.15508 0.66709 21760 ft 415 kts 287°
2026-05-07 15:00 39.16525 0.63248 21211 ft 411 kts 287°
2026-05-07 15:00 39.17532 0.59815 20689 ft 408 kts 287°
2026-05-07 15:01 39.18534 0.56398 20162 ft 405 kts 287°
2026-05-07 15:01 39.19526 0.53009 19645 ft 402 kts 288°
2026-05-07 15:01 39.20488 0.49686 19131 ft 399 kts 285°
2026-05-07 15:01 39.20968 0.46233 18773 ft 387 kts 267°
2026-05-07 15:02 39.20882 0.42792 18509 ft 380 kts 265°
2026-05-07 15:02 39.20782 0.39372 18266 ft 384 kts 265°
2026-05-07 15:02 39.20685 0.35909 17976 ft 390 kts 265°
2026-05-07 15:02 39.20595 0.32394 17678 ft 391 kts 265°
2026-05-07 15:03 39.20514 0.28904 17393 ft 388 kts 266°
2026-05-07 15:03 39.20437 0.25440 17125 ft 385 kts 266°
2026-05-07 15:03 39.20362 0.21997 16863 ft 383 kts 266°
2026-05-07 15:03 39.20287 0.18562 16598 ft 382 kts 266°
2026-05-07 15:04 39.20212 0.15147 16345 ft 381 kts 266°
2026-05-07 15:04 39.20137 0.11734 16087 ft 381 kts 266°
2026-05-07 15:04 39.20060 0.08314 15829 ft 380 kts 266°
2026-05-07 15:04 39.19982 0.04910 15569 ft 380 kts 266°
2026-05-07 15:05 39.19904 0.01506 15312 ft 380 kts 266°
2026-05-07 15:05 39.19824 -0.01903 15061 ft 380 kts 266°
2026-05-07 15:05 39.19744 -0.05294 14801 ft 378 kts 267°
2026-05-07 15:05 39.19663 -0.08664 14538 ft 375 kts 267°
2026-05-07 15:06 39.19582 -0.12016 14281 ft 373 kts 267°
2026-05-07 15:06 39.19501 -0.15351 14028 ft 371 kts 267°
2026-05-07 15:06 39.19420 -0.18625 13780 ft 369 kts 267°
2026-05-07 15:06 39.19337 -0.21934 13500 ft 367 kts 267°
2026-05-07 15:07 39.19253 -0.25217 13231 ft 366 kts 267°
2026-05-07 15:07 39.19170 -0.28487 12971 ft 364 kts 267°
2026-05-07 15:07 39.19085 -0.31747 12724 ft 363 kts 267°
2026-05-07 15:07 39.19000 -0.34990 12469 ft 361 kts 267°
2026-05-07 15:08 39.18915 -0.38216 12229 ft 360 kts 267°
2026-05-07 15:08 39.18829 -0.41442 11998 ft 360 kts 267°
2026-05-07 15:08 39.18742 -0.44671 11737 ft 361 kts 267°
2026-05-07 15:08 39.18654 -0.47896 11502 ft 358 kts 267°
2026-05-07 15:09 39.18573 -0.51077 11264 ft 352 kts 268°
2026-05-07 15:09 39.18764 -0.54194 11006 ft 348 kts 278°
2026-05-07 15:09 39.19309 -0.57200 10729 ft 341 kts 284°
2026-05-07 15:09 39.20026 -0.60092 10518 ft 334 kts 288°
2026-05-07 15:10 39.20837 -0.62839 10295 ft 325 kts 291°
2026-05-07 15:10 39.21738 -0.65437 10093 ft 316 kts 295°
2026-05-07 15:10 39.22748 -0.67874 9928 ft 300 kts 300°
2026-05-07 15:10 39.23838 -0.70111 9938 ft 292 kts 303°
2026-05-07 15:11 39.25043 -0.72240 9946 ft 294 kts 308°
2026-05-07 15:11 39.26349 -0.74222 9916 ft 285 kts 312°
2026-05-07 15:11 39.27723 -0.76051 9710 ft 286 kts 315°
2026-05-07 15:11 39.29195 -0.77775 9687 ft 284 kts 319°
2026-05-07 15:12 39.30735 -0.79365 9690 ft 282 kts 323°
2026-05-07 15:12 39.32341 -0.80813 9650 ft 283 kts 326°
2026-05-07 15:12 39.34033 -0.82134 9649 ft 283 kts 330°
2026-05-07 15:12 39.35771 -0.83295 9616 ft 281 kts 334°
2026-05-07 15:13 39.37565 -0.84306 9547 ft 281 kts 338°
2026-05-07 15:13 39.39401 -0.85161 9483 ft 281 kts 342°
2026-05-07 15:13 39.41281 -0.85861 9435 ft 280 kts 346°
2026-05-07 15:13 39.43188 -0.86401 9397 ft 282 kts 350°
2026-05-07 15:14 39.45134 -0.86784 9364 ft 284 kts 353°
2026-05-07 15:14 39.47100 -0.87005 9022 ft 280 kts 358°
2026-05-07 15:14 39.49020 -0.87049 8682 ft 273 kts
2026-05-07 15:14 39.50895 -0.86931 8341 ft 267 kts
2026-05-07 15:15 39.52722 -0.86661 8003 ft 261 kts 10°
2026-05-07 15:15 39.54488 -0.86264 7665 ft 255 kts 14°
2026-05-07 15:15 39.56201 -0.85749 7343 ft 250 kts 16°
2026-05-07 15:15 39.57863 -0.85148 7011 ft 246 kts 20°
2026-05-07 15:16 39.59470 -0.84441 6703 ft 241 kts 24°
2026-05-07 15:16 39.61004 -0.83618 6387 ft 237 kts 31°
2026-05-07 15:16 39.62195 -0.82264 6041 ft 229 kts 62°
2026-05-07 15:16 39.62667 -0.80319 5731 ft 229 kts 89°
2026-05-07 15:17 39.62417 -0.78274 5441 ft 234 kts 113°
2026-05-07 15:17 39.61384 -0.76617 5168 ft 244 kts 139°
2026-05-07 15:17 39.60072 -0.75202 4800 ft 247 kts 138°
2026-05-07 15:17 39.58771 -0.73743 4418 ft 247 kts 136°
2026-05-07 15:18 39.57789 -0.71896 3926 ft 252 kts 110°
2026-05-07 15:18 39.57143 -0.69815 3552 ft 245 kts 114°
2026-05-07 15:18 39.56390 -0.67880 3217 ft 235 kts 115°
2026-05-07 15:18 39.55668 -0.66015 2914 ft 229 kts 114°
2026-05-07 15:19 39.54975 -0.64184 2619 ft 223 kts 115°
2026-05-07 15:19 39.54308 -0.62417 2306 ft 211 kts 115°
2026-05-07 15:19 39.53689 -0.60778 2013 ft 196 kts 115°
2026-05-07 15:19 39.53112 -0.59248 1785 ft 183 kts 115°
2026-05-07 15:20 39.52581 -0.57841 1580 ft 164 kts 115°
2026-05-07 15:20 39.52103 -0.56572 1347 ft 149 kts 114°
2026-05-07 15:20 39.51649 -0.55365 1134 ft 150 kts 114°
2026-05-07 15:20 39.51193 -0.54158 905 ft 149 kts 115°
2026-05-07 15:21 39.50747 -0.52977 740 ft 146 kts 113°
2026-05-07 15:21 39.50304 -0.51779 563 ft 148 kts 112°
2026-05-07 15:21 39.49864 -0.50602 361 ft 146 kts 115°
2026-05-07 15:21 39.49425 -0.49456 212 ft 135 kts 115°
2026-05-07 15:22 39.49061 -0.48503 216 ft 97 kts 116°
2026-05-07 15:22 39.48828 -0.47889 220 ft 55 kts 116°
2026-05-07 15:22 39.48723 -0.47613 213 ft 21 kts 116°
2026-05-07 15:22 39.48654 -0.47424 211 ft 23 kts 107°
2026-05-07 15:23 39.48680 -0.47237 216 ft 21 kts 56°
2026-05-07 15:23 39.48801 -0.47196 210 ft 16 kts 339°
2026-05-07 15:23 39.48881 -0.47240 212 ft 8 kts 336°
2026-05-07 15:23 39.48934 -0.47262 214 ft 9 kts
2026-05-07 15:24 39.48977 -0.47236 214 ft 6 kts 24°
2026-05-07 15:24 39.48999 -0.47226 210 ft 2 kts 18°
2026-05-07 15:24 39.49004 -0.47224 209 ft 0 kts 18°